Wind_Speed
12 6 16 16 13 4 5 3 3 1 4 10 6 8 8 16 19 21 26 23 25 26 25 27 21 34 29 26 25 28 31 34 34 35 34 38 40 38 37 35 34 33 33 31
6 19 17 3 9 9 5 5 5 6 3 2 8 20 16 18 17 23 24 27 24 29 28 27 29 27 33 30 29 29 32 34 34 35 34 35 39 40 38 36 35 35 36 34
16 13 13 13 9 14 12 18 13 8 3 1 8 19 16 14 24 29 37 43 41 37 33 32 30 36 34 35 33 34 33 35 38 37 34 35 36 40 41 42 42 42 38 36
14 20 14 12 15 14 17 15 11 9 4 4 4 8 7 6 13 15 26 33 39 43 50 45 39 36 34 37 37 36 34 35 37 40 40 40 39 40 40 43 45 45 43 40
11 14 17 16 22 18 11 11 14 7 6 1 6 3 7 7 7 17 15 29 30 30 33 36 39 37 36 36 34 37 36 36 36 41 43 44 44 41 39 41 43 43 43 43
11 10 18 17 10 22 6 8 7 4 5 7 12 9 8 7 9 4 7 1 2 6 4 2 6 5 11 10 11 25 39 38 37 38 40 44 46 44 43 44 45 44 42 42
14 17 3 15 9 17 7 9 5 5 6 6 7 9 17 9 6 4 6 18 20 18 19 17 10 5 2 6 8 10 14 25 34 38 40 44 46 48 47 47 47 46 44 44
7 7 13 9 10 11 18 12 5 6 5 5 9 8 7 12 19 8 11 22 23 23 21 20 16 15 16 13 10 7 8 18 24 31 38 42 45 47 50 50 50 49 48 46
6 5 4 3 6 13 13 12 5 5 2 2 5 7 9 10 5 9 17 21 24 17 16 16 17 18 21 18 13 11 10 11 13 22 30 35 40 43 49 50 51 51 50 49
5 3 3 11 1 2 9 10 6 3 6 5 5 5 5 4 7 8 12 19 18 14 13 13 17 21 20 19 17 15 16 15 15 14 21 28 33 37 41 45 50 51 50 49
10 4 1 4 6 15 6 10 7 6 3 7 3 5 5 9 10 11 12 21 16 10 7 11 20 21 22 18 18 18 18 18 15 15 14 18 26 30 33 39 43 46 47 49
10 4 5 5 6 4 8 6 7 9 8 3 3 4 5 9 10 14 12 13 12 8 8 11 22 23 22 20 20 21 22 22 20 19 18 16 17 22 30 35 39 42 45 46
11 5 3 2 3 8 5 3 6 3 3 4 4 5 1 12 8 15 16 10 9 3 8 14 25 25 24 19 19 20 21 23 23 22 22 19 18 19 22 27 32 37 41 44
17 5 5 10 4 4 3 11 15 5 1 4 4 3 5 3 7 7 8 4 1 6 13 24 21 18 15 19 23 24 24 23 25 23 21 22 22 21 22 24 26 30 34 39
7 7 3 3 8 5 6 5 9 9 8 2 8 10 15 14 6 4 10 13 9 21 21 16 14 15 21 25 29 29 28 28 28 28 27 25 24 23 23 24 26 28 31 34
6 4 5 2 4 1 3 6 8 15 14 14 13 18 7 3 13 13 15 15 15 16 15 17 19 23 28 31 32 33 34 33 33 31 28 27 28 28 25 26 26 27 29 32
7 5 3 4 1 5 3 16 12 4 4 12 10 14 6 5 7 16 19 19 17 18 19 23 26 29 32 34 36 37 39 39 37 33 32 30 29 31 30 29 29 28 29 31
5 5 3 3 4 1 8 3 13 15 5 6 8 13 8 1 20 18 18 16 17 20 23 27 30 34 36 37 37 40 42 42 42 40 36 33 34 35 33 33 33 32 30 31
4 5 2 4 2 6 9 2 5 6 2 10 5 11 15 11 21 14 21 17 18 20 24 27 32 35 39 41 43 45 44 44 44 45 44 39 34 36 38 37 37 35 35 34
4 5 4 2 5 8 5 5 6 5 2 11 12 13 15 14 2 1 23 23 25 27 30 36 38 41 42 44 46 48 49 48 46 47 47 46 43 38 39 39 40 39 37 38
4 3 6 4 2 6 7 10 2 6 2 7 11 12 13 4 3 17 23 27 29 32 35 38 43 45 46 47 48 49 50 50 50 47 47 49 47 45 41 40 39 40 40 39
6 6 4 3 2 6 13 4 3 2 10 9 9 11 11 10 11 14 22 32 38 41 44 44 46 48 48 49 48 50 52 52 51 52 53 52 50 48 46 42 41 40 42 41
2 6 5 5 3 7 20 22 12 10 9 8 10 14 17 20 22 22 25 30 36 41 44 46 48 50 47 46 45 48 50 52 55 56 55 55 53 50 49 47 44 42 41 44
1 2 3 6 4 9 12 14 11 10 8 8 12 16 20 23 28 34 36 32 31 33 40 44 46 49 51 47 44 43 47 49 51 55 55 55 54 53 49 48 47 44 42 42
0 3 5 6 7 10 8 11 8 8 10 13 17 19 22 25 30 33 34 36 40 42 43 43 43 45 47 46 45 43 42 44 47 50 52 53 53 51 51 50 49 48 46 42
2 3 3 3 11 4 6 4 6 10 15 17 20 23 24 24 26 30 36 36 37 39 40 40 40 39 40 40 40 38 37 39 42 47 49 50 52 51 51 50 53 48 47 44
Wind_Direction
177 189 218 205 200 213 130 131 197 267 324 339 344 299 285 285 271 274 276 263 256 256 251 256 259 248 244 248 255 251 236 234 236 236 232 235 237 240 243 246 249 253 249 247
188 222 222 113 186 183 208 187 234 303 268 1 329 308 301 284 276 271 271 273 269 257 253 250 255 247 240 245 254 257 250 242 238 241 241 241 241 244 247 247 250 244 246 250
210 230 173 187 198 208 216 225 220 240 11 196 289 278 258 262 259 264 261 261 260 259 257 249 242 244 245 242 248 253 255 251 246 246 245 244 245 246 245 246 246 249 249 249
219 223 180 186 197 183 223 216 211 201 162 232 157 291 240 247 259 257 264 252 250 253 257 249 249 249 251 254 252 252 256 254 251 248 248 248 246 248 253 250 249 249 252 252
203 193 200 198 204 179 225 156 189 168 178 258 204 246 279 232 256 254 251 254 255 253 263 257 251 253 256 258 256 254 257 256 252 247 247 252 251 254 258 256 254 254 253 251
273 297 195 205 183 179 143 137 166 169 215 217 220 194 264 206 224 298 301 256 85 118 132 176 212 241 238 236 245 255 251 254 254 251 251 251 254 255 258 254 254 255 255 255
217 245 287 164 153 183 202 153 181 206 205 229 178 179 250 283 263 194 167 107 99 92 89 83 72 53 297 271 266 257 253 254 256 257 254 253 254 257 260 261 260 258 257 255
205 192 197 177 196 190 194 201 160 198 200 235 133 222 253 238 256 173 157 126 113 105 86 71 64 63 52 42 37 14 280 260 252 253 255 257 257 256 258 260 261 261 261 263
186 233 281 240 194 157 182 209 215 104 50 61 208 270 302 269 173 124 115 118 117 95 83 75 65 47 36 27 18 10 9 0 296 263 255 255 256 257 257 260 259 261 263 264
174 311 339 208 252 263 191 158 193 185 183 219 258 252 224 94 98 112 110 118 126 93 76 49 33 24 20 12 4 1 350 334 334 320 270 257 256 257 257 260 260 261 265 265
155 188 117 62 213 223 211 197 205 171 166 206 173 258 249 190 144 127 129 125 127 107 64 34 22 16 11 11 7 356 349 344 335 331 320 279 264 260 260 258 259 260 262 263
180 175 202 190 200 268 329 201 239 193 186 236 158 222 113 131 144 139 116 122 120 93 41 2 6 3 3 8 8 3 357 351 348 343 329 313 287 270 262 260 260 262 262 262
156 189 149 212 142 175 192 288 334 161 65 196 140 230 347 100 107 117 110 120 135 59 11 2 354 357 1 7 359 351 347 346 347 342 337 328 311 298 283 273 266 263 263 263
156 173 201 225 154 135 174 203 202 281 67 165 227 4 285 130 99 88 89 41 283 21 1 354 4 11 11 359 356 356 352 349 343 339 337 332 327 316 299 292 279 268 264 262
162 201 187 133 133 143 145 157 194 196 196 182 213 211 242 289 84 84 358 351 353 353 7 25 30 17 3 356 350 348 348 343 343 335 334 329 322 316 308 303 295 285 275 267
171 220 160 273 128 184 156 218 199 203 228 233 252 265 171 112 357 7 357 1 9 7 12 22 11 4 358 355 350 344 342 341 343 341 330 328 326 313 305 304 302 290 281 276
143 127 94 235 263 140 349 223 219 221 203 216 221 254 79 47 56 58 60 57 46 24 12 3 357 351 348 346 343 339 337 334 335 338 335 325 320 322 311 300 296 294 288 281
121 102 79 141 34 10 240 302 206 215 244 336 313 296 44 334 105 89 61 44 19 4 355 347 343 339 339 338 335 330 330 331 331 329 328 329 320 316 320 312 301 296 292 286
88 113 96 146 181 299 299 264 145 156 123 6 353 26 8 16 121 73 27 11 359 346 341 334 332 332 330 331 331 328 326 324 327 325 322 321 322 316 311 312 313 303 295 288
50 63 119 119 158 206 253 293 234 131 211 16 35 31 11 1 101 72 346 341 336 335 333 331 329 328 326 324 324 323 323 322 321 320 318 318 316 313 310 306 306 310 300 289
122 129 168 189 185 282 250 280 315 114 196 43 43 30 21 42 12 307 314 322 326 326 324 322 321 321 320 320 319 317 317 318 317 314 311 311 312 309 304 302 299 300 304 295
160 151 182 129 141 255 5 332 171 81 69 54 31 11 354 331 320 317 320 323 325 323 321 320 316 315 316 316 315 312 311 312 310 309 307 306 307 306 304 301 296 295 295 296
170 178 172 165 179 78 56 87 75 81 81 29 360 346 339 333 329 327 325 326 324 322 321 319 317 315 315 315 315 311 308 307 305 303 302 302 302 303 302 300 297 292 290 290
143 130 112 130 84 118 92 70 70 50 45 4 349 341 337 329 327 325 328 329 326 322 320 320 318 315 312 316 314 311 309 308 304 301 300 300 300 300 300 299 296 293 287 285
209 345 129 87 119 122 88 46 31 17 3 350 343 339 336 331 327 326 323 323 323 323 323 324 322 319 315 315 313 314 314 309 304 301 301 300 300 300 298 296 294 293 288 285
6 146 167 174 144 130 119 8 1 0 351 343 340 335 333 330 325 323 321 322 323 324 325 324 323 322 322 322 321 323 318 313 308 304 303 303 303 301 299 300 297 292 290 289
Height
1531 1535 1529 1529 1534 1540 1543 1547 1550 1548 1548 1546 1542 1540 1532 1526 1523 1522 1521 1520 1520 1521 1523 1523 1524 1524 1525 1525 1528 1529 1529 1529 1532 1533 1534 1535 1535 1537 1538 1539 1541 1542 1543 1545
1529 1522 1520 1530 1534 1537 1544 1544 1546 1547 1546 1547 1544 1536 1529 1523 1518 1516 1516 1513 1514 1515 1516 1517 1518 1519 1518 1517 1518 1521 1523 1523 1522 1524 1527 1528 1530 1531 1532 1534 1534 1536 1536 1538
1518 1513 1523 1527 1531 1536 1539 1539 1545 1548 1547 1546 1547 1535 1526 1513 1509 1510 1506 1506 1505 1507 1509 1509 1510 1509 1510 1510 1511 1512 1515 1516 1517 1518 1521 1523 1525 1526 1527 1526 1526 1527 1529 1531
1515 1510 1517 1521 1524 1531 1537 1535 1541 1545 1549 1554 1546 1544 1516 1509 1503 1500 1495 1494 1493 1496 1498 1498 1500 1504 1505 1504 1506 1507 1508 1509 1510 1512 1513 1513 1513 1514 1515 1517 1519 1520 1522 1523
1502 1506 1510 1516 1510 1523 1525 1528 1535 1541 1545 1546 1547 1552 1509 1504 1503 1488 1484 1483 1485 1486 1487 1489 1494 1496 1497 1499 1500 1501 1502 1502 1504 1505 1506 1506 1506 1506 1508 1509 1509 1511 1513 1515
1506 1505 1504 1501 1510 1516 1522 1529 1534 1538 1542 1540 1530 1538 1494 1499 1483 1478 1479 1479 1482 1483 1486 1488 1490 1489 1488 1490 1491 1494 1496 1496 1498 1498 1499 1498 1497 1499 1500 1499 1499 1501 1504 1505
1505 1505 1498 1499 1510 1514 1518 1524 1532 1534 1532 1530 1517 1532 1489 1486 1477 1477 1480 1480 1482 1483 1483 1485 1487 1487 1486 1488 1489 1490 1490 1490 1492 1492 1492 1492 1491 1492 1493 1492 1493 1493 1495 1496
1494 1497 1496 1491 1493 1499 1508 1516 1516 1523 1524 1524 1523 1522 1494 1478 1471 1473 1473 1477 1480 1482 1483 1486 1486 1486 1486 1486 1487 1487 1486 1485 1485 1485 1485 1486 1486 1486 1485 1485 1485 1486 1487 1488
1496 1495 1490 1488 1490 1492 1501 1508 1505 1518 1543 1534 1518 1498 1484 1473 1476 1474 1474 1477 1482 1486 1488 1490 1489 1487 1486 1486 1486 1485 1483 1481 1479 1478 1478 1478 1479 1479 1478 1479 1479 1479 1479 1480
1492 1492 1489 1484 1491 1489 1489 1494 1511 1516 1521 1527 1509 1499 1489 1474 1476 1475 1475 1478 1482 1487 1489 1492 1490 1487 1485 1484 1483 1482 1481 1478 1475 1472 1471 1470 1471 1471 1471 1471 1471 1471 1471 1472
1490 1494 1496 1495 1489 1489 1489 1489 1493 1496 1508 1504 1511 1496 1473 1470 1473 1472 1472 1476 1479 1484 1489 1492 1489 1486 1482 1480 1479 1479 1477 1474 1471 1468 1465 1463 1462 1463 1463 1463 1462 1461 1462 1463
1481 1489 1493 1488 1490 1492 1493 1485 1488 1481 1495 1502 1494 1495 1472 1470 1471 1471 1476 1478 1482 1486 1488 1490 1487 1484 1480 1476 1474 1475 1474 1472 1468 1465 1461 1459 1456 1455 1455 1454 1454 1454 1453 1454
1474 1482 1495 1490 1489 1492 1493 1489 1497 1483 1489 1494 1494 1491 1470 1473 1475 1477 1479 1484 1485 1486 1486 1485 1483 1480 1477 1473 1471 1471 1470 1467 1464 1459 1457 1454 1451 1449 1447 1446 1446 1445 1445 1445
1464 1474 1474 1466 1471 1475 1482 1484 1492 1490 1482 1488 1482 1476 1473 1474 1476 1478 1480 1482 1482 1483 1483 1482 1480 1478 1474 1473 1470 1467 1466 1464 1460 1455 1451 1448 1445 1443 1441 1439 1437 1436 1435 1435
1462 1468 1472 1470 1471 1475 1477 1485 1482 1488 1485 1486 1483 1484 1475 1467 1472 1475 1475 1476 1477 1478 1478 1477 1476 1474 1474 1472 1470 1466 1464 1460 1456 1451 1447 1442 1440 1437 1434 1432 1430 1428 1426 1425
1462 1478 1471 1480 1472 1473 1473 1473 1470 1471 1473 1475 1475 1467 1466 1470 1470 1470 1472 1474 1476 1478 1478 1476 1475 1473 1471 1470 1466 1464 1460 1456 1451 1446 1442 1438 1433 1429 1426 1424 1421 1418 1417 1416
1459 1471 1487 1500 1476 1474 1482 1463 1465 1463 1463 1462 1470 1456 1465 1469 1471 1477 1479 1480 1480 1480 1478 1476 1475 1472 1469 1466 1463 1459 1456 1451 1445 1440 1437 1432 1427 1424 1420 1416 1413 1410 1407 1406
1460 1471 1486 1495 1498 1504 1460 1456 1456 1459 1461 1465 1463 1459 1468 1469 1473 1478 1481 1481 1481 1480 1477 1475 1471 1468 1466 1463 1461 1457 1451 1445 1439 1433 1430 1426 1420 1416 1413 1408 1405 1402 1398 1396
1454 1466 1486 1481 1509 1484 1459 1455 1460 1463 1479 1477 1469 1471 1472 1468 1468 1477 1480 1481 1480 1479 1477 1474 1472 1467 1463 1459 1454 1448 1445 1439 1433 1426 1422 1420 1416 1410 1406 1402 1397 1393 1388 1386
1458 1459 1474 1498 1504 1503 1469 1455 1452 1454 1473 1478 1477 1477 1476 1470 1470 1476 1478 1478 1477 1474 1471 1468 1465 1462 1459 1454 1449 1442 1436 1429 1426 1420 1414 1409 1407 1404 1399 1395 1389 1385 1380 1377
1464 1468 1474 1497 1504 1484 1461 1455 1453 1473 1478 1483 1481 1481 1481 1481 1486 1482 1476 1475 1474 1471 1467 1464 1460 1455 1451 1447 1442 1436 1429 1423 1417 1413 1407 1402 1399 1395 1392 1386 1382 1376 1371 1367
1459 1467 1471 1480 1478 1475 1463 1458 1456 1480 1482 1483 1482 1482 1482 1482 1481 1480 1476 1470 1464 1459 1455 1454 1450 1446 1443 1439 1434 1428 1421 1415 1408 1402 1395 1390 1387 1384 1380 1376 1371 1367 1363 1358
1457 1451 1461 1462 1466 1475 1473 1473 1478 1479 1481 1482 1481 1480 1478 1475 1474 1474 1470 1466 1460 1455 1451 1447 1443 1436 1435 1432 1428 1419 1412 1405 1398 1391 1386 1381 1376 1373 1369 1364 1360 1356 1354 1348
1444 1442 1448 1454 1475 1477 1477 1477 1479 1480 1480 1481 1480 1478 1476 1472 1468 1463 1459 1457 1455 1453 1448 1442 1436 1428 1422 1421 1417 1413 1405 1399 1390 1381 1375 1369 1364 1359 1356 1353 1349 1346 1343 1340
1447 1445 1448 1471 1476 1476 1476 1475 1476 1477 1477 1475 1474 1473 1470 1467 1463 1458 1454 1450 1447 1443 1438 1433 1427 1421 1413 1409 1404 1401 1396 1388 1379 1371 1364 1359 1354 1349 1343 1340 1337 1333 1330 1330
1450 1448 1447 1449 1462 1465 1471 1473 1473 1473 1472 1471 1470 1469 1467 1465 1461 1457 1452 1449 1444 1438 1434 1427 1423 1416 1409 1403 1397 1394 1388 1380 1372 1362 1356 1349 1342 1336 1332 1327 1320 1320 1316 1315